Gillette, WY

7:50 PM MDT on May 28, 2017 (GMT -0600)
Gillette-Campbell County

Weather History for KGCC - September, 2014

Change the Weather History Date:

Tuesday, September 16, 2014

  Actual Average Record
Temperature  
Mean Temperature 64 °F 58 °F  
Max Temperature 85 °F 73 °F 98 °F (2000)
Min Temperature 43 °F 43 °F 25 °F (1965)
Degree Days  
Heating Degree Days 1 8  
Month to date heating degree days 176 86  
Since 1 July heating degree days 225 143  
Cooling Degree Days 0 1  
Month to date cooling degree days 12 34  
Year to date cooling degree days 367 494  
Growing Degree Days 14 (Base 50)    
Moisture  
Dew Point 41 °F    
Average Humidity 50    
Maximum Humidity 83    
Minimum Humidity 17    
Precipitation  
Precipitation 0.00 in 0.03 in 0.71 in (1980)
Month to date precipitation 0.62 0.56  
Year to date precipitation 15.88 11.04  
Sea Level Pressure  
Sea Level Pressure 29.96 in    
Wind  
Wind Speed 5 mph (WSW)    
Max Wind Speed 15 mph    
Max Gust Speed 21 mph    
Visibility 10 miles    
Events      
T = Trace of Precipitation, MM = Missing Value Source: NWS Daily Summary

Daily Weather History Graph

Daily Weather History Graph

Search for Another Location

Airport or City:

Trip Planner

Search our weather history database for the weather conditions in past years. The results will help you decide how hot, cold, wet, or windy it might be!

Date:

Astronomy

Sep. 16, 2014 Rise Set
Actual Time 6:42 AM MDT 7:10 PM MDT
Civil Twilight 6:13 AM MDT 7:39 PM MDT
Nautical Twilight 5:38 AM MDT 8:14 PM MDT
Astronomical Twilight 5:03 AM MDT 8:49 PM MDT
Moon No Moon Rise 2:46 PM MDT (9/16)
Length of Visible Light 13h 26m
Length of Day
12h 28m
Last Quarter, 43% of the Moon is Illuminated
Sep 16
Last Quarter
Sep 24
New
Oct 1
First Quarter
Oct 8
Full
Oct 15
Last Quarter

Hourly Weather History & Observations

Time (MDT) Temp. Dew Point Humidity Pressure Visibility Wind Dir Wind Speed Gust Speed Precip Events Conditions
12:53 AM 51.1 °F 44.1 °F 77% 30.03 in - Variable 3.5 mph - N/A   Clear
1:53 AM 53.1 °F 44.1 °F 71% 30.01 in - Calm Calm - N/A   Clear
2:53 AM 48.9 °F 42.1 °F 77% 30.02 in - Calm Calm - N/A   Clear
3:53 AM 55.0 °F 43.0 °F 64% 30.00 in - SSW 5.8 mph - N/A   Clear
4:53 AM 46.9 °F 41.0 °F 80% 30.02 in - Calm Calm - N/A   Clear
5:53 AM 45.0 °F 39.9 °F 82% 30.01 in - North - - N/A   Clear
6:53 AM 46.0 °F 39.9 °F 79% 30.03 in - Calm Calm - N/A   Clear
7:53 AM 59.0 °F 43.0 °F 55% 30.00 in - Calm Calm - N/A   Clear
8:53 AM 63.0 °F 50.0 °F 63% 29.99 in - Variable 3.5 mph - N/A   Clear
9:53 AM 70.0 °F 45.0 °F 41% 29.99 in - WSW 9.2 mph - N/A   Clear
10:53 AM 75.9 °F 42.1 °F 30% 29.96 in - SW 8.1 mph - N/A   Clear
11:53 AM 78.1 °F 34.0 °F 20% 29.94 in - WSW 6.9 mph - N/A   Unknown
12:53 PM 81.0 °F 35.1 °F 19% 29.93 in 10.0 mi Calm Calm - N/A   Clear
1:53 PM 82.9 °F 35.1 °F 18% 29.89 in 10.0 mi Variable 5.8 mph - N/A   Clear
2:53 PM 84.0 °F 35.1 °F 17% 29.89 in 10.0 mi WNW 9.2 mph - N/A   Clear
3:53 PM 84.0 °F 37.0 °F 19% 29.87 in 10.0 mi NNW 13.8 mph - N/A   Clear
4:53 PM 81.0 °F 37.0 °F 21% 29.90 in 10.0 mi North 12.7 mph - N/A   Clear
5:53 PM 75.0 °F 42.1 °F 31% 29.92 in 10.0 mi North 8.1 mph - N/A   Clear
6:53 PM 69.1 °F 44.1 °F 40% 29.94 in 10.0 mi Calm Calm - N/A   Clear
7:53 PM 53.6 °F 42.8 °F 67% 30.01 in 10.0 mi WSW 4.6 mph - N/A   Clear
8:53 PM 50.0 °F 42.1 °F 74% 29.95 in 10.0 mi SW 5.8 mph - N/A   Clear
10:53 PM 51.1 °F 42.1 °F 71% 29.92 in 10.0 mi South 4.6 mph - N/A   Clear
11:53 PM 55.9 °F 39.9 °F 55% 29.90 in 10.0 mi South 5.8 mph - N/A   Clear